Back to catalog

STARLINK-11491

AliveCommunicationsVLEO
NORAD 62269·PAYLOAD·🇺🇸 United States

Launched Dec 8, 2024 from Cape Canaveral Space Force Station

Loading…

Next Passes (next 24 hours)

TLE

FreshSource: CelesTrak SupGP

Epoch: Sep 14, 2026, 13:42 UTC

1 62269C 24237C   26257.57131944  .00033760  00000+0  26254-3 0  2576
2 62269  43.0006 357.9103 0001635 282.9723 325.8262 15.70792651    18

Track STARLINK-11491 in real time with AllMySat

Download on the App Store